Weather History for Fredericksburg, VA

Change the Weather History Date:

Friday, June 14, 2013

  Actual Average (KNYG) Record (KNYG)
Temperature  
Mean Temperature 71 °F -  
Max Temperature 79 °F 78 °F 91 °F (2005)
Min Temperature 63 °F 62 °F 60 °F (1998)
Cooling Degree Days 6    
Growing Degree Days 21 (Base 50)    
Moisture  
Dew Point 54 °F    
Average Humidity 57    
Maximum Humidity 83    
Minimum Humidity 37    
Precipitation  
Precipitation 0.00 in - - ()
Sea Level Pressure  
Sea Level Pressure 29.83 in    
Wind  
Wind Speed - (North)    
Max Wind Speed -    
Max Gust Speed -    
Visibility 10 miles    
Events      
Averages and records for this station are not official NWS values.
T = Trace of Precipitation, MM = Missing Value Source: NWS Daily Summary

Daily Weather History Graph

Daily Weather History Graph

Search for Another Location

Airport:

Trip Planner

Search our weather history database for the weather conditions in past years. The results will help you decide how hot, cold, wet, or windy it might be!

Date:

Astronomy

Jun. 14, 2013 Rise Set
Actual Time 5:45 AM EDT 8:34 PM EDT
Civil Twilight 5:14 AM EDT 9:06 PM EDT
Nautical Twilight 4:34 AM EDT 9:45 PM EDT
Astronomical Twilight 3:49 AM EDT 10:31 PM EDT
Moon 11:14 AM EDT (6/14) No Moon Set
Length of Visible Light 15h 51m
Length of Day
14h 48m
Waxing Crescent, 30% of the Moon is Illuminated
Jun 14
Waxing Crescent
Jun 16
First Quarter
Jun 23
Full
Jun 30
Last Quarter
Jul 8
New

Hourly Weather History & Observations

Time (EDT) Temp. Dew Point Humidity Pressure Visibility Wind Dir Wind Speed Gust Speed Precip Events Conditions
12:15 AM 68.9 °F 57.6 °F 67% 29.63 in 10.0 mi North - - N/A   Clear
12:35 AM 68.4 °F 57.4 °F 68% 29.62 in 10.0 mi North - - N/A   Clear
12:55 AM 68.0 °F 57.2 °F 68% 29.63 in 10.0 mi North - - N/A   Clear
1:15 AM 67.8 °F 57.2 °F 69% 29.64 in 10.0 mi North - - N/A   Scattered Clouds
1:35 AM 67.6 °F 57.2 °F 69% 29.64 in 10.0 mi North - - N/A   Mostly Cloudy
1:55 AM 68.0 °F 57.2 °F 68% 29.64 in 10.0 mi North - - N/A   Overcast
2:15 AM 68.9 °F 56.1 °F 64% 29.64 in 10.0 mi North - - N/A   Overcast
2:35 AM 69.3 °F 54.7 °F 60% 29.65 in 10.0 mi North - - N/A   Scattered Clouds
2:55 AM 69.4 °F 54.5 °F 59% 29.66 in 10.0 mi North - - N/A   Mostly Cloudy
3:15 AM 69.4 °F 54.1 °F 58% 29.67 in 10.0 mi North - - N/A   Overcast
3:35 AM 69.3 °F 54.0 °F 58% 29.68 in 10.0 mi North - - N/A   Overcast
3:55 AM 68.9 °F 53.8 °F 58% 29.69 in 10.0 mi North - - N/A   Overcast
4:15 AM 68.9 °F 53.6 °F 58% 29.69 in 10.0 mi North - - N/A   Overcast
4:35 AM 68.5 °F 53.6 °F 59% 29.70 in 10.0 mi North - - N/A   Overcast
4:55 AM 68.4 °F 53.4 °F 59% 29.70 in 10.0 mi North - - N/A   Overcast
5:15 AM 68.2 °F 53.4 °F 59% 29.71 in 10.0 mi North - - N/A   Overcast
5:35 AM 68.2 °F 53.4 °F 59% 29.72 in 10.0 mi North - - N/A   Overcast
5:55 AM 67.3 °F 53.8 °F 62% 29.73 in 10.0 mi North - - N/A   Overcast
6:15 AM 67.1 °F 54.1 °F 63% 29.75 in 10.0 mi North - - N/A   Overcast
6:35 AM 65.8 °F 54.7 °F 67% 29.76 in 10.0 mi North - - N/A   Overcast
6:55 AM 65.7 °F 55.4 °F 69% 29.77 in 10.0 mi North - - N/A   Mostly Cloudy
7:15 AM 66.2 °F 55.4 °F 68% 29.77 in 10.0 mi North - - N/A   Mostly Cloudy
7:35 AM 66.2 °F 55.6 °F 69% 29.78 in 10.0 mi North - - N/A   Mostly Cloudy
7:55 AM 65.8 °F 55.6 °F 69% 29.79 in 10.0 mi North - - N/A   Overcast
8:15 AM 65.8 °F 55.9 °F 70% 29.80 in 10.0 mi North - - N/A   Overcast
8:35 AM 66.4 °F 56.5 °F 70% 29.81 in 10.0 mi North - - N/A   Overcast
8:55 AM 68.0 °F 56.1 °F 66% 29.81 in 10.0 mi North - - N/A   Scattered Clouds
9:15 AM 68.0 °F 54.9 °F 63% 29.82 in 10.0 mi North - - N/A   Mostly Cloudy
9:35 AM 68.7 °F 55.4 °F 62% 29.83 in 10.0 mi North - - N/A   Overcast
9:55 AM 68.5 °F 54.1 °F 60% 29.83 in 10.0 mi North - - N/A   Mostly Cloudy
10:15 AM 70.9 °F 54.0 °F 55% 29.84 in 10.0 mi North - - N/A   Mostly Cloudy
10:35 AM 70.2 °F 54.0 °F 56% 29.85 in 10.0 mi North - - N/A   Mostly Cloudy
10:55 AM 71.2 °F 54.1 °F 55% 29.86 in 10.0 mi North - - N/A   Mostly Cloudy
11:15 AM 72.5 °F 54.1 °F 52% 29.86 in 10.0 mi North - - N/A   Scattered Clouds
11:35 AM 72.9 °F 52.0 °F 48% 29.87 in 10.0 mi North - - N/A   Scattered Clouds
11:55 AM 73.0 °F 50.5 °F 45% 29.88 in 10.0 mi North - - N/A   Clear
12:15 PM 73.6 °F 52.0 °F 47% 29.88 in 10.0 mi North - - N/A   Scattered Clouds
12:35 PM 73.0 °F 49.5 °F 43% 29.89 in 10.0 mi North - - N/A   Mostly Cloudy
12:55 PM 75.2 °F 49.3 °F 40% 29.89 in 10.0 mi North - - N/A   Scattered Clouds
1:15 PM 75.0 °F 49.8 °F 41% 29.89 in 10.0 mi North - - N/A   Scattered Clouds
1:35 PM 76.3 °F 50.4 °F 40% 29.90 in 10.0 mi North - - N/A   Scattered Clouds
1:55 PM 76.1 °F 50.4 °F 40% 29.90 in 10.0 mi North - - N/A   Scattered Clouds
2:15 PM 75.9 °F 52.2 °F 43% 29.90 in 10.0 mi North - - N/A   Scattered Clouds
2:35 PM 76.1 °F 51.1 °F 41% 29.90 in 10.0 mi North - - N/A   Scattered Clouds
2:55 PM 76.1 °F 52.0 °F 43% 29.90 in 10.0 mi North - - N/A   Scattered Clouds
3:15 PM 78.3 °F 53.6 °F 42% 29.90 in 10.0 mi North - - N/A   Scattered Clouds
3:35 PM 78.3 °F 53.1 °F 41% 29.90 in 10.0 mi North - - N/A   Clear
3:55 PM 78.4 °F 53.1 °F 41% 29.90 in 10.0 mi North - - N/A   Scattered Clouds
4:15 PM 79.0 °F 53.2 °F 41% 29.90 in 10.0 mi North - - N/A   Scattered Clouds
4:35 PM 78.8 °F 53.1 °F 41% 29.90 in 10.0 mi North - - N/A   Scattered Clouds
4:55 PM 79.7 °F 52.5 °F 39% 29.89 in 10.0 mi North - - N/A   Clear
5:15 PM 79.9 °F 53.2 °F 40% 29.89 in 10.0 mi North - - N/A   Clear
5:35 PM 79.9 °F 52.5 °F 39% 29.89 in 10.0 mi North - - N/A   Scattered Clouds
5:55 PM 79.9 °F 52.9 °F 39% 29.90 in 10.0 mi North - - N/A   Scattered Clouds
6:15 PM 79.0 °F 52.2 °F 39% 29.89 in 10.0 mi North - - N/A   Clear
6:35 PM 79.7 °F 51.6 °F 38% 29.89 in 10.0 mi North - - N/A   Clear
6:55 PM 79.2 °F 50.9 °F 37% 29.90 in 10.0 mi North - - N/A   Clear
7:15 PM 79.0 °F 52.2 °F 39% 29.90 in 10.0 mi North - - N/A   Clear
7:35 PM 78.3 °F 52.0 °F 40% 29.91 in 10.0 mi North - - N/A   Clear
7:55 PM 77.4 °F 52.5 °F 42% 29.91 in 10.0 mi North - - N/A   Clear
8:15 PM 75.7 °F 53.1 °F 45% 29.91 in 10.0 mi North - - N/A   Clear
8:35 PM 70.7 °F 59.2 °F 67% 29.91 in 10.0 mi North - - N/A   Clear
8:55 PM 68.5 °F 59.5 °F 73% 29.93 in 10.0 mi North - - N/A   Clear
9:15 PM 68.2 °F 59.7 °F 74% 29.93 in 10.0 mi North - - N/A   Clear
9:35 PM 67.1 °F 59.0 °F 75% 29.94 in 10.0 mi North - - N/A   Clear
9:55 PM 67.1 °F 58.3 °F 73% 29.94 in 10.0 mi North - - N/A   Scattered Clouds
10:15 PM 65.8 °F 57.7 °F 75% 29.96 in 10.0 mi North - - N/A   Clear
10:35 PM 65.8 °F 58.1 °F 76% 29.96 in 10.0 mi North - - N/A   Clear
10:55 PM 64.4 °F 57.6 °F 78% 29.97 in 10.0 mi North - - N/A   Clear
11:15 PM 63.9 °F 57.7 °F 80% 29.97 in 10.0 mi North - - N/A   Clear
11:35 PM 63.5 °F 58.3 °F 83% 29.98 in 10.0 mi North - - N/A   Clear
11:55 PM 63.7 °F 58.3 °F 83% 29.99 in 10.0 mi North - - N/A   Clear